STARLINK-1833

Last updated on Tue Nov 24 2020 00:02:02 GMT+0000 (Coordinated Universal Time)

1 46759U 20074W 20328.58334491 -.01085246 00000-0 -19998-1 0 9991 2 46759 53.0554 13.6116 0001103 81.7495 234.7079 15.51393669 1856

Satellite not in orbit

STARLINK-1833